Year,Month,Day,Hour,Minute,Value (Times are PST for temperature in C)
2013,09,21,00,00,14.40
2013,09,21,00,01,14.40
2013,09,21,00,02,14.40
2013,09,21,00,03,14.40
2013,09,21,00,04,14.40
2013,09,21,00,05,14.40
2013,09,21,00,06,14.40
2013,09,21,00,07,14.40
2013,09,21,00,08,14.40
2013,09,21,00,09,14.40
2013,09,21,00,10,14.40
2013,09,21,00,11,14.40
2013,09,21,00,12,14.30
2013,09,21,00,13,14.30
2013,09,21,00,14,14.30
2013,09,21,00,15,14.30
2013,09,21,00,16,14.30
2013,09,21,00,17,14.30
2013,09,21,00,18,14.30
2013,09,21,00,19,14.30
2013,09,21,00,20,14.30
2013,09,21,00,21,14.30
2013,09,21,00,22,14.30
2013,09,21,00,23,14.30
2013,09,21,00,24,14.30
2013,09,21,00,25,14.30
2013,09,21,00,26,14.30
2013,09,21,00,27,14.30
2013,09,21,00,28,14.30
2013,09,21,00,29,14.30
2013,09,21,00,30,14.30
2013,09,21,00,31,14.30
2013,09,21,00,32,14.30
2013,09,21,00,33,14.30
2013,09,21,00,34,14.30
2013,09,21,00,35,14.30
2013,09,21,00,36,14.30
2013,09,21,00,37,14.30
2013,09,21,00,38,14.30
2013,09,21,00,39,14.40
2013,09,21,00,40,14.40
2013,09,21,00,41,14.40
2013,09,21,00,42,14.40
2013,09,21,00,43,14.40
2013,09,21,00,44,14.40
2013,09,21,00,45,14.40
2013,09,21,00,46,14.40
2013,09,21,00,47,14.40
2013,09,21,00,48,14.40
2013,09,21,00,49,14.40
2013,09,21,00,50,14.40
2013,09,21,00,51,14.40
2013,09,21,00,52,14.40
2013,09,21,00,53,14.40
2013,09,21,00,54,14.40
2013,09,21,00,55,14.40
2013,09,21,00,56,14.40
2013,09,21,00,57,14.40
2013,09,21,00,58,14.40
2013,09,21,00,59,14.40
2013,09,21,01,00,14.40
2013,09,21,01,01,14.40
2013,09,21,01,02,14.40
2013,09,21,01,03,14.40
2013,09,21,01,04,14.40
2013,09,21,01,05,14.40
2013,09,21,01,06,14.40
2013,09,21,01,07,14.40
2013,09,21,01,08,14.40
2013,09,21,01,09,14.50
2013,09,21,01,10,14.50
2013,09,21,01,11,14.50
2013,09,21,01,12,14.40
2013,09,21,01,13,14.40
2013,09,21,01,14,14.40
2013,09,21,01,15,14.40
2013,09,21,01,16,14.40
2013,09,21,01,17,14.40
2013,09,21,01,18,14.40
2013,09,21,01,19,14.40
2013,09,21,01,20,14.40
2013,09,21,01,21,14.40
2013,09,21,01,22,14.40
2013,09,21,01,23,14.40
2013,09,21,01,24,14.40
2013,09,21,01,25,14.40
2013,09,21,01,26,14.40
2013,09,21,01,27,14.40
2013,09,21,01,28,14.40
2013,09,21,01,29,14.40
2013,09,21,01,30,14.40
2013,09,21,01,31,14.40
2013,09,21,01,32,14.40
2013,09,21,01,33,14.40
2013,09,21,01,34,14.40
2013,09,21,01,35,14.40
2013,09,21,01,36,14.40
2013,09,21,01,37,14.40
2013,09,21,01,38,14.40
2013,09,21,01,39,14.40
2013,09,21,01,40,14.40
2013,09,21,01,41,14.40
2013,09,21,01,42,14.40
2013,09,21,01,43,14.40
2013,09,21,01,44,14.40
2013,09,21,01,45,14.40
2013,09,21,01,46,14.40
2013,09,21,01,47,14.40
2013,09,21,01,48,14.40
2013,09,21,01,49,14.30
2013,09,21,01,50,14.30
2013,09,21,01,51,14.30
2013,09,21,01,52,14.30
2013,09,21,01,53,14.30
2013,09,21,01,54,14.30
2013,09,21,01,55,14.30
2013,09,21,01,56,14.30
2013,09,21,01,57,14.30
2013,09,21,01,58,14.30
2013,09,21,01,59,14.30
2013,09,21,02,00,14.30
2013,09,21,02,01,14.20
2013,09,21,02,02,14.20
2013,09,21,02,03,14.10
2013,09,21,02,04,14.00
2013,09,21,02,05,14.00
2013,09,21,02,06,14.00
2013,09,21,02,07,13.90
2013,09,21,02,08,13.90
2013,09,21,02,09,13.90
2013,09,21,02,10,13.80
2013,09,21,02,11,13.80
2013,09,21,02,12,13.80
2013,09,21,02,13,13.80
2013,09,21,02,14,13.80
2013,09,21,02,15,13.80
2013,09,21,02,16,13.80
2013,09,21,02,17,13.80
2013,09,21,02,18,13.80
2013,09,21,02,19,13.80
2013,09,21,02,20,13.80
2013,09,21,02,21,13.80
2013,09,21,02,22,13.80
2013,09,21,02,23,13.80
2013,09,21,02,24,13.80
2013,09,21,02,25,13.80
2013,09,21,02,26,13.80
2013,09,21,02,27,13.80
2013,09,21,02,28,13.80
2013,09,21,02,29,13.80
2013,09,21,02,30,13.80
2013,09,21,02,31,13.80
2013,09,21,02,32,13.80
2013,09,21,02,33,13.80
2013,09,21,02,34,13.80
2013,09,21,02,35,13.80
2013,09,21,02,36,13.80
2013,09,21,02,37,13.80
2013,09,21,02,38,13.80
2013,09,21,02,39,13.80
2013,09,21,02,40,13.80
2013,09,21,02,41,13.80
2013,09,21,02,42,13.80
2013,09,21,02,43,13.80
2013,09,21,02,44,13.80
2013,09,21,02,45,13.80
2013,09,21,02,46,13.80
2013,09,21,02,47,13.90
2013,09,21,02,48,13.90
2013,09,21,02,49,13.90
2013,09,21,02,50,13.90
2013,09,21,02,51,13.90
2013,09,21,02,52,13.90
2013,09,21,02,53,13.90
2013,09,21,02,54,13.90
2013,09,21,02,55,13.90
2013,09,21,02,56,13.90
2013,09,21,02,57,13.90
2013,09,21,02,58,13.90
2013,09,21,02,59,13.90
2013,09,21,03,00,13.80
2013,09,21,03,01,13.80
2013,09,21,03,02,13.80
2013,09,21,03,03,13.80
2013,09,21,03,04,13.80
2013,09,21,03,05,13.80
2013,09,21,03,06,13.80
2013,09,21,03,07,13.80
2013,09,21,03,08,13.80
2013,09,21,03,09,13.80
2013,09,21,03,10,13.80
2013,09,21,03,11,13.80
2013,09,21,03,12,13.80
2013,09,21,03,13,13.90
2013,09,21,03,14,13.90
2013,09,21,03,15,13.90
2013,09,21,03,16,13.90
2013,09,21,03,17,13.90
2013,09,21,03,18,13.90
2013,09,21,03,19,13.90
2013,09,21,03,20,14.00
2013,09,21,03,21,14.00
2013,09,21,03,22,14.00
2013,09,21,03,23,14.00
2013,09,21,03,24,14.00
2013,09,21,03,25,14.10
2013,09,21,03,26,14.10
2013,09,21,03,27,14.10
2013,09,21,03,28,14.10
2013,09,21,03,29,14.10
2013,09,21,03,30,14.10
2013,09,21,03,31,14.10
2013,09,21,03,32,14.00
2013,09,21,03,33,14.00
2013,09,21,03,34,14.00
2013,09,21,03,35,13.90
2013,09,21,03,36,13.90
2013,09,21,03,37,13.90
2013,09,21,03,38,13.90
2013,09,21,03,39,13.90
2013,09,21,03,40,13.80
2013,09,21,03,41,13.80
2013,09,21,03,42,13.80
2013,09,21,03,43,13.80
2013,09,21,03,44,13.80
2013,09,21,03,45,13.80
2013,09,21,03,46,13.80
2013,09,21,03,47,13.70
2013,09,21,03,48,13.70
2013,09,21,03,49,13.70
2013,09,21,03,50,13.70
2013,09,21,03,51,13.70
2013,09,21,03,52,13.70
2013,09,21,03,53,13.70
2013,09,21,03,54,13.70
2013,09,21,03,55,13.70
2013,09,21,03,56,13.70
2013,09,21,03,57,13.70
2013,09,21,03,58,13.70
2013,09,21,03,59,13.70
2013,09,21,04,00,13.70
2013,09,21,04,01,13.70
2013,09,21,04,02,13.70
2013,09,21,04,03,13.70
2013,09,21,04,04,13.70
2013,09,21,04,05,13.60
2013,09,21,04,06,13.60
2013,09,21,04,07,13.60
2013,09,21,04,08,13.60
2013,09,21,04,09,13.60
2013,09,21,04,10,13.50
2013,09,21,04,11,13.50
2013,09,21,04,12,13.40
2013,09,21,04,13,13.40
2013,09,21,04,14,13.40
2013,09,21,04,15,13.30
2013,09,21,04,16,13.20
2013,09,21,04,17,13.20
2013,09,21,04,18,13.10
2013,09,21,04,19,13.10
2013,09,21,04,20,13.00
2013,09,21,04,21,12.90
2013,09,21,04,22,12.90
2013,09,21,04,23,12.80
2013,09,21,04,24,12.80
2013,09,21,04,25,12.80
2013,09,21,04,26,12.70
2013,09,21,04,27,12.70
2013,09,21,04,28,12.70
2013,09,21,04,29,12.70
2013,09,21,04,30,12.70
2013,09,21,04,31,12.60
2013,09,21,04,32,12.60
2013,09,21,04,33,12.60
2013,09,21,04,34,12.60
2013,09,21,04,35,12.60
2013,09,21,04,36,12.60
2013,09,21,04,37,12.50
2013,09,21,04,38,12.50
2013,09,21,04,39,12.50
2013,09,21,04,40,12.50
2013,09,21,04,41,12.50
2013,09,21,04,42,12.50
2013,09,21,04,43,12.50
2013,09,21,04,44,12.50
2013,09,21,04,45,12.50
2013,09,21,04,46,12.40
2013,09,21,04,47,12.40
2013,09,21,04,48,12.40
2013,09,21,04,49,12.40
2013,09,21,04,50,12.40
2013,09,21,04,51,12.40
2013,09,21,04,52,12.40
2013,09,21,04,53,12.40
2013,09,21,04,54,12.40
2013,09,21,04,55,12.40
2013,09,21,04,56,12.40
2013,09,21,04,57,12.40
2013,09,21,04,58,12.40
2013,09,21,04,59,12.40
2013,09,21,05,00,12.40
2013,09,21,05,01,12.40
2013,09,21,05,02,12.40
2013,09,21,05,03,12.40
2013,09,21,05,04,12.40
2013,09,21,05,05,12.40
2013,09,21,05,06,12.40
2013,09,21,05,07,12.40
2013,09,21,05,08,12.40
2013,09,21,05,09,12.40
2013,09,21,05,10,12.40
2013,09,21,05,11,12.40
2013,09,21,05,12,12.40
2013,09,21,05,13,12.40
2013,09,21,05,14,12.40
2013,09,21,05,15,12.40
2013,09,21,05,16,12.40
2013,09,21,05,17,12.40
2013,09,21,05,18,12.40
2013,09,21,05,19,12.40
2013,09,21,05,20,12.40
2013,09,21,05,21,12.40
2013,09,21,05,22,12.40
2013,09,21,05,23,12.40
2013,09,21,05,24,12.40
2013,09,21,05,25,12.40
2013,09,21,05,26,12.40
2013,09,21,05,27,12.40
2013,09,21,05,28,12.40
2013,09,21,05,29,12.40
2013,09,21,05,30,12.40
2013,09,21,05,31,12.40
2013,09,21,05,32,12.40
2013,09,21,05,33,12.40
2013,09,21,05,34,12.40
2013,09,21,05,35,12.40
2013,09,21,05,36,12.30
2013,09,21,05,37,12.30
2013,09,21,05,38,12.30
2013,09,21,05,39,12.30
2013,09,21,05,40,12.30
2013,09,21,05,41,12.30
2013,09,21,05,42,12.30
2013,09,21,05,43,12.30
2013,09,21,05,44,12.30
2013,09,21,05,45,12.30
2013,09,21,05,46,12.30
2013,09,21,05,47,12.20
2013,09,21,05,48,12.20
2013,09,21,05,49,12.20
2013,09,21,05,50,12.20
2013,09,21,05,51,12.20
2013,09,21,05,52,12.20
2013,09,21,05,53,12.20
2013,09,21,05,54,12.20
2013,09,21,05,55,12.10
2013,09,21,05,56,12.10
2013,09,21,05,57,12.10
2013,09,21,05,58,12.10
2013,09,21,05,59,12.10
2013,09,21,06,00,12.10
2013,09,21,06,01,12.10
2013,09,21,06,02,12.10
2013,09,21,06,03,12.00
2013,09,21,06,04,12.00
2013,09,21,06,05,12.00
2013,09,21,06,06,12.00
2013,09,21,06,07,12.00
2013,09,21,06,08,11.90
2013,09,21,06,09,12.00
2013,09,21,06,10,12.00
2013,09,21,06,11,12.00
2013,09,21,06,12,12.00
2013,09,21,06,13,11.90
2013,09,21,06,14,11.90
2013,09,21,06,15,11.90
2013,09,21,06,16,11.90
2013,09,21,06,17,11.90
2013,09,21,06,18,11.90
2013,09,21,06,19,11.90
2013,09,21,06,20,11.90
2013,09,21,06,21,11.90
2013,09,21,06,22,11.90
2013,09,21,06,23,11.90
2013,09,21,06,24,11.90
2013,09,21,06,25,11.90
2013,09,21,06,26,11.90
2013,09,21,06,27,11.90
2013,09,21,06,28,11.90
2013,09,21,06,29,11.90
2013,09,21,06,30,11.80
2013,09,21,06,31,11.80
2013,09,21,06,32,11.80
2013,09,21,06,33,11.80
2013,09,21,06,34,11.80
2013,09,21,06,35,11.80
2013,09,21,06,36,11.80
2013,09,21,06,37,11.80
2013,09,21,06,38,11.80
2013,09,21,06,39,11.70
2013,09,21,06,40,11.70
2013,09,21,06,41,11.70
2013,09,21,06,42,11.70
2013,09,21,06,43,11.60
2013,09,21,06,44,11.60
2013,09,21,06,45,11.60
2013,09,21,06,46,11.60
2013,09,21,06,47,11.60
2013,09,21,06,48,11.60
2013,09,21,06,49,11.50
2013,09,21,06,50,11.50
2013,09,21,06,51,11.40
2013,09,21,06,52,11.40
2013,09,21,06,53,11.40
2013,09,21,06,54,11.40
2013,09,21,06,55,11.30
2013,09,21,06,56,11.30
2013,09,21,06,57,11.30
2013,09,21,06,58,11.30
2013,09,21,06,59,11.30
2013,09,21,07,00,11.30
2013,09,21,07,01,11.20
2013,09,21,07,02,11.20
2013,09,21,07,03,11.20
2013,09,21,07,04,11.20
2013,09,21,07,05,11.20
2013,09,21,07,06,11.20
2013,09,21,07,07,11.20
2013,09,21,07,08,11.20
2013,09,21,07,09,11.20
2013,09,21,07,10,11.20
2013,09,21,07,11,11.20
2013,09,21,07,12,11.10
2013,09,21,07,13,11.10
2013,09,21,07,14,11.10
2013,09,21,07,15,11.10
2013,09,21,07,16,11.10
2013,09,21,07,17,11.10
2013,09,21,07,18,11.10
2013,09,21,07,19,11.10
2013,09,21,07,20,11.10
2013,09,21,07,21,11.10
2013,09,21,07,22,11.10
2013,09,21,07,23,11.10
2013,09,21,07,24,11.00
2013,09,21,07,25,11.00
2013,09,21,07,26,11.00
2013,09,21,07,27,11.00
2013,09,21,07,28,11.00
2013,09,21,07,29,10.90
2013,09,21,07,30,10.90
2013,09,21,07,31,10.90
2013,09,21,07,32,10.90
2013,09,21,07,33,10.90
2013,09,21,07,34,10.90
2013,09,21,07,35,10.90
2013,09,21,07,36,10.90
2013,09,21,07,37,10.80
2013,09,21,07,38,10.80
2013,09,21,07,39,10.80
2013,09,21,07,40,10.80
2013,09,21,07,41,10.80
2013,09,21,07,42,10.80
2013,09,21,07,43,10.80
2013,09,21,07,44,10.90
2013,09,21,07,45,10.90
2013,09,21,07,46,10.90
2013,09,21,07,47,10.90
2013,09,21,07,48,10.90
2013,09,21,07,49,10.80
2013,09,21,07,50,10.80
2013,09,21,07,51,10.80
2013,09,21,07,52,10.80
2013,09,21,07,53,10.80
2013,09,21,07,54,10.80
2013,09,21,07,55,10.80
2013,09,21,07,56,10.80
2013,09,21,07,57,10.90
2013,09,21,07,58,10.90
2013,09,21,07,59,10.90
2013,09,21,08,00,10.90
2013,09,21,08,01,10.90
2013,09,21,08,02,10.90
2013,09,21,08,03,11.00
2013,09,21,08,04,11.00
2013,09,21,08,05,11.00
2013,09,21,08,06,11.00
2013,09,21,08,07,11.10
2013,09,21,08,08,11.10
2013,09,21,08,09,11.10
2013,09,21,08,10,11.10
2013,09,21,08,11,11.10
2013,09,21,08,12,11.10
2013,09,21,08,13,11.10
2013,09,21,08,14,11.10
2013,09,21,08,15,11.10
2013,09,21,08,16,11.10
2013,09,21,08,17,11.10
2013,09,21,08,18,11.20
2013,09,21,08,19,11.20
2013,09,21,08,20,11.20
2013,09,21,08,21,11.20
2013,09,21,08,22,11.30
2013,09,21,08,23,11.30
2013,09,21,08,24,11.30
2013,09,21,08,25,11.30
2013,09,21,08,26,11.40
2013,09,21,08,27,11.40
2013,09,21,08,28,11.50
2013,09,21,08,29,11.50
2013,09,21,08,30,11.50
2013,09,21,08,31,11.60
2013,09,21,08,32,11.60
2013,09,21,08,33,11.60
2013,09,21,08,34,11.60
2013,09,21,08,35,11.60
2013,09,21,08,36,11.70
2013,09,21,08,37,11.70
2013,09,21,08,38,11.70
2013,09,21,08,39,11.70
2013,09,21,08,40,11.80
2013,09,21,08,41,11.80
2013,09,21,08,42,11.80
2013,09,21,08,43,11.90
2013,09,21,08,44,11.90
2013,09,21,08,45,11.90
2013,09,21,08,46,12.00
2013,09,21,08,47,12.00
2013,09,21,08,48,12.00
2013,09,21,08,49,12.10
2013,09,21,08,50,12.10
2013,09,21,08,51,12.20
2013,09,21,08,52,12.20
2013,09,21,08,53,12.20
2013,09,21,08,54,12.30
2013,09,21,08,55,12.30
2013,09,21,08,56,12.30
2013,09,21,08,57,12.30
2013,09,21,08,58,12.30
2013,09,21,08,59,12.30
2013,09,21,09,00,12.30
2013,09,21,09,01,12.30
2013,09,21,09,02,12.30
2013,09,21,09,03,12.40
2013,09,21,09,04,12.40
2013,09,21,09,05,12.40
2013,09,21,09,06,12.40
2013,09,21,09,07,12.40
2013,09,21,09,08,12.50
2013,09,21,09,09,12.50
2013,09,21,09,10,12.50
2013,09,21,09,11,12.50
2013,09,21,09,12,12.50
2013,09,21,09,13,12.50
2013,09,21,09,14,12.60
2013,09,21,09,15,12.60
2013,09,21,09,16,12.60
2013,09,21,09,17,12.60
2013,09,21,09,18,12.60
2013,09,21,09,19,12.60
2013,09,21,09,20,12.60
2013,09,21,09,21,12.60
2013,09,21,09,22,12.60
2013,09,21,09,23,12.70
2013,09,21,09,24,12.70
2013,09,21,09,25,12.70
2013,09,21,09,26,12.70
2013,09,21,09,27,12.70
2013,09,21,09,28,12.70
2013,09,21,09,29,12.70
2013,09,21,09,30,12.70
2013,09,21,09,31,12.80
2013,09,21,09,32,12.80
2013,09,21,09,33,12.80
2013,09,21,09,34,12.80
2013,09,21,09,35,12.80
2013,09,21,09,36,12.80
2013,09,21,09,37,12.80
2013,09,21,09,38,12.80
2013,09,21,09,39,12.80
2013,09,21,09,40,12.80
2013,09,21,09,41,12.80
2013,09,21,09,42,12.80
2013,09,21,09,43,12.80
2013,09,21,09,44,12.80
2013,09,21,09,45,12.90
2013,09,21,09,46,12.90
2013,09,21,09,47,13.00
2013,09,21,09,48,13.00
2013,09,21,09,49,13.00
2013,09,21,09,50,13.00
2013,09,21,09,51,13.10
2013,09,21,09,52,13.10
2013,09,21,09,53,13.10
2013,09,21,09,54,13.10
2013,09,21,09,55,13.10
2013,09,21,09,56,13.10
2013,09,21,09,57,13.10
2013,09,21,09,58,13.20
2013,09,21,09,59,13.20
2013,09,21,10,00,13.20
2013,09,21,10,01,13.20
2013,09,21,10,02,13.20
2013,09,21,10,03,13.30
2013,09,21,10,04,13.30
2013,09,21,10,05,13.30
2013,09,21,10,06,13.30
2013,09,21,10,07,13.30
2013,09,21,10,08,13.40
2013,09,21,10,09,13.40
2013,09,21,10,10,13.40
2013,09,21,10,11,13.40
2013,09,21,10,12,13.40
2013,09,21,10,13,13.50
2013,09,21,10,14,13.50
2013,09,21,10,15,13.60
2013,09,21,10,16,13.60
2013,09,21,10,17,13.60
2013,09,21,10,18,13.70
2013,09,21,10,19,13.70
2013,09,21,10,20,13.70
2013,09,21,10,21,13.70
2013,09,21,10,22,13.70
2013,09,21,10,23,13.70
2013,09,21,10,24,13.70
2013,09,21,10,25,13.70
2013,09,21,10,26,13.80
2013,09,21,10,27,13.80
2013,09,21,10,28,13.80
2013,09,21,10,29,13.80
2013,09,21,10,30,13.80
2013,09,21,10,31,13.80
2013,09,21,10,32,13.80
2013,09,21,10,33,13.80
2013,09,21,10,34,13.80
2013,09,21,10,35,13.80
2013,09,21,10,36,13.90
2013,09,21,10,37,13.90
2013,09,21,10,38,14.00
2013,09,21,10,39,14.00
2013,09,21,10,40,14.10
2013,09,21,10,41,14.10
2013,09,21,10,42,14.10
2013,09,21,10,43,14.20
2013,09,21,10,44,14.20
2013,09,21,10,45,14.30
2013,09,21,10,46,14.30
2013,09,21,10,47,14.40
2013,09,21,10,48,14.40
2013,09,21,10,49,14.50
2013,09,21,10,50,14.60
2013,09,21,10,51,14.60
2013,09,21,10,52,14.70
2013,09,21,10,53,14.70
2013,09,21,10,54,14.70
2013,09,21,10,55,14.70
2013,09,21,10,56,14.70
2013,09,21,10,57,14.70
2013,09,21,10,58,14.70
2013,09,21,10,59,14.70
2013,09,21,11,00,14.70
2013,09,21,11,01,14.70
2013,09,21,11,02,14.70
2013,09,21,11,03,14.80
2013,09,21,11,04,14.80
2013,09,21,11,05,14.80
2013,09,21,11,06,14.90
2013,09,21,11,07,14.90
2013,09,21,11,08,14.90
2013,09,21,11,09,14.90
2013,09,21,11,10,15.00
2013,09,21,11,11,15.00
2013,09,21,11,12,15.00
2013,09,21,11,13,15.10
2013,09,21,11,14,15.10
2013,09,21,11,15,15.10
2013,09,21,11,16,15.10
2013,09,21,11,17,15.20
2013,09,21,11,18,15.20
2013,09,21,11,19,15.20
2013,09,21,11,20,15.20
2013,09,21,11,21,15.30
2013,09,21,11,22,15.30
2013,09,21,11,23,15.40
2013,09,21,11,24,15.40
2013,09,21,11,25,15.50
2013,09,21,11,26,15.50
2013,09,21,11,27,15.50
2013,09,21,11,28,15.50
2013,09,21,11,29,15.50
2013,09,21,11,30,15.50
2013,09,21,11,31,15.60
2013,09,21,11,32,15.60
2013,09,21,11,33,15.60
2013,09,21,11,34,15.60
2013,09,21,11,35,15.60
2013,09,21,11,36,15.70
2013,09,21,11,37,15.70
2013,09,21,11,38,15.80
2013,09,21,11,39,15.90
2013,09,21,11,40,15.90
2013,09,21,11,41,16.00
2013,09,21,11,42,16.10
2013,09,21,11,43,16.10
2013,09,21,11,44,16.10
2013,09,21,11,45,16.10
2013,09,21,11,46,16.20
2013,09,21,11,47,16.20
2013,09,21,11,48,16.20
2013,09,21,11,49,16.30
2013,09,21,11,50,16.30
2013,09,21,11,51,16.30
2013,09,21,11,52,16.30
2013,09,21,11,53,16.30
2013,09,21,11,54,16.30
2013,09,21,11,55,16.30
2013,09,21,11,56,16.30
2013,09,21,11,57,16.20
2013,09,21,11,58,16.30
2013,09,21,11,59,16.30
2013,09,21,12,00,16.30
2013,09,21,12,01,16.40
2013,09,21,12,02,16.40
2013,09,21,12,03,16.50
2013,09,21,12,04,16.60
2013,09,21,12,05,16.60
2013,09,21,12,06,16.60
2013,09,21,12,07,16.60
2013,09,21,12,08,16.60
2013,09,21,12,09,16.60
2013,09,21,12,10,16.60
2013,09,21,12,11,16.60
2013,09,21,12,12,16.60
2013,09,21,12,13,16.70
2013,09,21,12,14,16.70
2013,09,21,12,15,16.70
2013,09,21,12,16,16.70
2013,09,21,12,17,16.80
2013,09,21,12,18,16.80
2013,09,21,12,19,16.80
2013,09,21,12,20,16.80
2013,09,21,12,21,16.80
2013,09,21,12,22,16.80
2013,09,21,12,23,16.80
2013,09,21,12,24,16.80
2013,09,21,12,25,16.80
2013,09,21,12,26,16.80
2013,09,21,12,27,16.90
2013,09,21,12,28,17.00
2013,09,21,12,29,17.00
2013,09,21,12,30,17.00
2013,09,21,12,31,17.00
2013,09,21,12,32,17.00
2013,09,21,12,33,17.10
2013,09,21,12,34,17.10
2013,09,21,12,35,17.20
2013,09,21,12,36,17.20
2013,09,21,12,37,17.20
2013,09,21,12,38,17.30
2013,09,21,12,39,17.30
2013,09,21,12,40,17.30
2013,09,21,12,41,17.40
2013,09,21,12,42,17.40
2013,09,21,12,43,17.50
2013,09,21,12,44,17.70
2013,09,21,12,45,17.80
2013,09,21,12,46,17.90
2013,09,21,12,47,17.90
2013,09,21,12,48,18.00
2013,09,21,12,49,18.00
2013,09,21,12,50,18.00
2013,09,21,12,51,18.00
2013,09,21,12,52,18.00
2013,09,21,12,53,17.90
2013,09,21,12,54,17.90
2013,09,21,12,55,17.90
2013,09,21,12,56,17.90
2013,09,21,12,57,17.80
2013,09,21,12,58,17.80
2013,09,21,12,59,17.80
2013,09,21,13,00,17.80
2013,09,21,13,01,17.80
2013,09,21,13,02,17.80
2013,09,21,13,03,17.90
2013,09,21,13,04,17.90
2013,09,21,13,05,17.90
2013,09,21,13,06,18.00
2013,09,21,13,07,18.10
2013,09,21,13,08,18.10
2013,09,21,13,09,18.20
2013,09,21,13,10,18.20
2013,09,21,13,11,18.20
2013,09,21,13,12,18.20
2013,09,21,13,13,18.30
2013,09,21,13,14,18.30
2013,09,21,13,15,18.30
2013,09,21,13,16,18.40
2013,09,21,13,17,18.50
2013,09,21,13,18,18.50
2013,09,21,13,19,18.50
2013,09,21,13,20,18.50
2013,09,21,13,21,18.50
2013,09,21,13,22,18.40
2013,09,21,13,23,18.40
2013,09,21,13,24,18.40
2013,09,21,13,25,18.30
2013,09,21,13,26,18.30
2013,09,21,13,27,18.20
2013,09,21,13,28,18.20
2013,09,21,13,29,18.20
2013,09,21,13,30,18.20
2013,09,21,13,31,18.20
2013,09,21,13,32,18.20
2013,09,21,13,33,18.20
2013,09,21,13,34,18.30
2013,09,21,13,35,18.50
2013,09,21,13,36,18.60
2013,09,21,13,37,18.70
2013,09,21,13,38,18.80
2013,09,21,13,39,18.80
2013,09,21,13,40,18.80
2013,09,21,13,41,18.80
2013,09,21,13,42,18.80
2013,09,21,13,43,18.90
2013,09,21,13,44,19.00
2013,09,21,13,45,19.00
2013,09,21,13,46,19.10
2013,09,21,13,47,19.20
2013,09,21,13,48,19.20
2013,09,21,13,49,19.20
2013,09,21,13,50,19.20
2013,09,21,13,51,19.10
2013,09,21,13,52,19.10
2013,09,21,13,53,19.10
2013,09,21,13,54,19.20
2013,09,21,13,55,19.20
2013,09,21,13,56,19.20
2013,09,21,13,57,19.20
2013,09,21,13,58,19.30
2013,09,21,13,59,19.30
2013,09,21,14,00,19.30
2013,09,21,14,01,19.40
2013,09,21,14,02,19.40
2013,09,21,14,03,19.40
2013,09,21,14,04,19.40
2013,09,21,14,05,19.30
2013,09,21,14,06,19.20
2013,09,21,14,07,19.20
2013,09,21,14,08,19.10
2013,09,21,14,09,19.10
2013,09,21,14,10,19.00
2013,09,21,14,11,18.90
2013,09,21,14,12,18.90
2013,09,21,14,13,18.90
2013,09,21,14,14,18.90
2013,09,21,14,15,18.90
2013,09,21,14,16,18.80
2013,09,21,14,17,18.80
2013,09,21,14,18,18.80
2013,09,21,14,19,18.70
2013,09,21,14,20,18.70
2013,09,21,14,21,18.70
2013,09,21,14,22,18.70
2013,09,21,14,23,18.70
2013,09,21,14,24,18.60
2013,09,21,14,25,18.70
2013,09,21,14,26,18.70
2013,09,21,14,27,18.60
2013,09,21,14,28,18.60
2013,09,21,14,29,18.60
2013,09,21,14,30,18.70
2013,09,21,14,31,18.70
2013,09,21,14,32,18.70
2013,09,21,14,33,18.70
2013,09,21,14,34,18.70
2013,09,21,14,35,18.90
2013,09,21,14,36,18.90
2013,09,21,14,37,19.00
2013,09,21,14,38,19.00
2013,09,21,14,39,19.10
2013,09,21,14,40,19.10
2013,09,21,14,41,19.20
2013,09,21,14,42,19.20
2013,09,21,14,43,19.30
2013,09,21,14,44,19.30
2013,09,21,14,45,19.30
2013,09,21,14,46,19.40
2013,09,21,14,47,19.40
2013,09,21,14,48,19.40
2013,09,21,14,49,19.40
2013,09,21,14,50,19.40
2013,09,21,14,51,19.50
2013,09,21,14,52,19.50
2013,09,21,14,53,19.50
2013,09,21,14,54,19.50
2013,09,21,14,55,19.50
2013,09,21,14,56,19.50
2013,09,21,14,57,19.40
2013,09,21,14,58,19.40
2013,09,21,14,59,19.30
2013,09,21,15,00,19.40
2013,09,21,15,01,19.40
2013,09,21,15,02,19.50
2013,09,21,15,03,19.50
2013,09,21,15,04,19.50
2013,09,21,15,05,19.50
2013,09,21,15,06,19.60
2013,09,21,15,07,19.60
2013,09,21,15,08,19.60
2013,09,21,15,09,19.60
2013,09,21,15,10,19.60
2013,09,21,15,11,19.70
2013,09,21,15,12,19.70
2013,09,21,15,13,19.70
2013,09,21,15,14,19.60
2013,09,21,15,15,19.60
2013,09,21,15,16,19.50
2013,09,21,15,17,19.40
2013,09,21,15,18,19.50
2013,09,21,15,19,19.50
2013,09,21,15,20,19.50
2013,09,21,15,21,19.50
2013,09,21,15,22,19.60
2013,09,21,15,23,19.60
2013,09,21,15,24,19.70
2013,09,21,15,25,19.70
2013,09,21,15,26,19.70
2013,09,21,15,27,19.80
2013,09,21,15,28,19.80
2013,09,21,15,29,19.80
2013,09,21,15,30,19.90
2013,09,21,15,31,19.90
2013,09,21,15,32,19.90
2013,09,21,15,33,19.90
2013,09,21,15,34,19.90
2013,09,21,15,35,20.00
2013,09,21,15,36,20.00
2013,09,21,15,37,20.10
2013,09,21,15,38,20.10
2013,09,21,15,39,20.20
2013,09,21,15,40,20.20
2013,09,21,15,41,20.20
2013,09,21,15,42,20.10
2013,09,21,15,43,20.00
2013,09,21,15,44,19.90
2013,09,21,15,45,19.80
2013,09,21,15,46,19.70
2013,09,21,15,47,19.70
2013,09,21,15,48,19.60
2013,09,21,15,49,19.60
2013,09,21,15,50,19.60
2013,09,21,15,51,19.60
2013,09,21,15,52,19.60
2013,09,21,15,53,19.60
2013,09,21,15,54,19.60
2013,09,21,15,55,19.50
2013,09,21,15,56,19.50
2013,09,21,15,57,19.40
2013,09,21,15,58,19.40
2013,09,21,15,59,19.40
2013,09,21,16,00,19.30
2013,09,21,16,01,19.40
2013,09,21,16,02,19.40
2013,09,21,16,03,19.40
2013,09,21,16,04,19.30
2013,09,21,16,05,19.30
2013,09,21,16,06,19.30
2013,09,21,16,07,19.30
2013,09,21,16,08,19.30
2013,09,21,16,09,19.20
2013,09,21,16,10,19.20
2013,09,21,16,11,19.20
2013,09,21,16,12,19.10
2013,09,21,16,13,19.00
2013,09,21,16,14,19.00
2013,09,21,16,15,18.90
2013,09,21,16,16,18.90
2013,09,21,16,17,18.90
2013,09,21,16,18,18.80
2013,09,21,16,19,18.80
2013,09,21,16,20,18.70
2013,09,21,16,21,18.60
2013,09,21,16,22,18.60
2013,09,21,16,23,18.50
2013,09,21,16,24,18.50
2013,09,21,16,25,18.50
2013,09,21,16,26,18.50
2013,09,21,16,27,18.50
2013,09,21,16,28,18.50
2013,09,21,16,29,18.60
2013,09,21,16,30,18.70
2013,09,21,16,31,18.70
2013,09,21,16,32,18.80
2013,09,21,16,33,18.80
2013,09,21,16,34,18.90
2013,09,21,16,35,18.90
2013,09,21,16,36,18.90
2013,09,21,16,37,18.90
2013,09,21,16,38,18.90
2013,09,21,16,39,18.90
2013,09,21,16,40,18.90
2013,09,21,16,41,18.90
2013,09,21,16,42,19.00
2013,09,21,16,43,19.00
2013,09,21,16,44,19.10
2013,09,21,16,45,19.10
2013,09,21,16,46,19.10
2013,09,21,16,47,19.10
2013,09,21,16,48,19.00
2013,09,21,16,49,19.00
2013,09,21,16,50,19.00
2013,09,21,16,51,19.00
2013,09,21,16,52,19.10
2013,09,21,16,53,19.10
2013,09,21,16,54,19.10
2013,09,21,16,55,19.10
2013,09,21,16,56,19.00
2013,09,21,16,57,18.90
2013,09,21,16,58,18.90
2013,09,21,16,59,18.80
2013,09,21,17,00,18.80
2013,09,21,17,01,18.80
2013,09,21,17,02,18.70
2013,09,21,17,03,18.70
2013,09,21,17,04,18.70
2013,09,21,17,05,18.70
2013,09,21,17,06,18.70
2013,09,21,17,07,18.70
2013,09,21,17,08,18.70
2013,09,21,17,09,18.70
2013,09,21,17,10,18.70
2013,09,21,17,11,18.60
2013,09,21,17,12,18.60
2013,09,21,17,13,18.70
2013,09,21,17,14,18.70
2013,09,21,17,15,18.70
2013,09,21,17,16,18.70
2013,09,21,17,17,18.70
2013,09,21,17,18,18.70
2013,09,21,17,19,18.70